Weather History for South Lake Tahoe, CA

Change the Weather History Date:

Sunday, March 3, 2013

  Actual Average Record
Temperature  
Mean Temperature 38 °F 33 °F  
Max Temperature 44 °F 47 °F 57 °F (1986)
Min Temperature 32 °F 20 °F 2 °F (2001)
Degree Days  
Heating Degree Days 27 32  
Month to date heating degree days 72 96  
Since 1 July heating degree days 5090 5333  
Cooling Degree Days 0 0  
Month to date cooling degree days 0 0  
Year to date cooling degree days 0 0  
Moisture  
Dew Point 32 °F    
Average Humidity 73    
Maximum Humidity 92    
Minimum Humidity 53    
Precipitation  
Precipitation 0.14 in - 1.69 in (1944)
Month to date precipitation 0.14  
Year to date precipitation 1.04  
Sea Level Pressure  
Sea Level Pressure 30.03 in    
Wind  
Wind Speed 5 mph (SSE)    
Max Wind Speed 15 mph    
Max Gust Speed 24 mph    
Visibility 8 miles    
Events Rain , Snow    
T = Trace of Precipitation, MM = Missing Value Source: NWS Daily Summary

Daily Weather History Graph

Daily Weather History Graph

Search for Another Location

Airport:

Trip Planner

Search our weather history database for the weather conditions in past years. The results will help you decide how hot, cold, wet, or windy it might be!

Date:

Astronomy

Mar. 03, 2013 Rise Set
Actual Time 6:28 AM PST 5:55 PM PST
Civil Twilight 6:02 AM PST 6:21 PM PST
Nautical Twilight 5:31 AM PST 6:52 PM PST
Astronomical Twilight 5:00 AM PST 7:23 PM PST
Moon No Moon Rise 9:52 AM PST (3/3)
Length of Visible Light 12h 19m
Length of Day
11h 26m
Waning Gibbous, 62% of the Moon is Illuminated
Mar 3
Waning Gibbous
Mar 4
Last Quarter
Mar 11
New
Mar 19
First Quarter
Mar 27
Full

Hourly Weather History & Observations

Time (PST) Temp. Windchill Dew Point Humidity Pressure Visibility Wind Dir Wind Speed Gust Speed Precip Events Conditions
12:30 AM 42.8 °F 38.0 °F 32.0 °F 66% 30.13 in 8.0 mi South 8.1 mph - 0.00 in Rain Light Rain
12:53 AM 42.1 °F 35.2 °F 32.0 °F 67% 30.04 in 10.0 mi South 12.7 mph 19.6 mph 0.00 in Rain Light Rain
1:15 AM 42.8 °F 36.6 °F 30.2 °F 61% 30.11 in 10.0 mi South 11.5 mph 19.6 mph 0.00 in Rain Light Rain
1:53 AM 43.0 °F 38.8 °F 30.9 °F 62% 30.00 in 10.0 mi Variable 6.9 mph - 0.00 in   Overcast
2:53 AM 41.0 °F 36.4 °F 30.9 °F 67% 29.99 in 10.0 mi SSE 6.9 mph - 0.00 in Rain Light Rain
4:53 AM 39.9 °F 35.1 °F 30.9 °F 70% 29.99 in 10.0 mi South 6.9 mph - 0.00 in Rain Light Rain
5:31 AM 39.2 °F 33.0 °F 30.2 °F 70% 30.07 in 10.0 mi SSE 9.2 mph 16.1 mph 0.00 in Rain Light Rain
5:43 AM 39.2 °F 35.0 °F 30.2 °F 70% 30.07 in 10.0 mi SE 5.8 mph - 0.00 in Rain Light Rain
5:53 AM 39.0 °F 34.8 °F 30.9 °F 73% 29.99 in 10.0 mi SE 5.8 mph - 0.00 in Rain Light Rain
6:08 AM 39.2 °F 35.9 °F 30.2 °F 70% 30.06 in 10.0 mi South 4.6 mph - 0.00 in Rain Light Rain
6:46 AM 39.2 °F 33.6 °F 30.2 °F 70% 30.06 in 10.0 mi South 8.1 mph - 0.00 in   Overcast
6:53 AM 39.9 °F 35.1 °F 30.9 °F 70% 30.01 in 10.0 mi South 6.9 mph - 0.00 in   Overcast
7:53 AM 39.0 °F 35.7 °F 32.0 °F 76% 30.02 in 10.0 mi South 4.6 mph - 0.00 in Rain Light Rain
8:53 AM 39.0 °F 35.7 °F 33.1 °F 79% 30.01 in 10.0 mi South 4.6 mph - 0.00 in Rain Light Rain
9:53 AM 39.9 °F - 33.1 °F 77% 30.00 in 10.0 mi Calm Calm - 0.00 in Rain Light Rain
10:47 AM 39.2 °F - 33.8 °F 81% 30.05 in 10.0 mi Calm Calm - 0.01 in Rain Light Rain
10:48 AM 39.9 °F - 33.1 °F 77% 29.99 in 10.0 mi Calm Calm - 0.01 in Rain Light Rain
10:59 AM 37.4 °F 34.9 °F 33.8 °F 87% 30.05 in 4.0 mi North 3.5 mph - 0.01 in Rain Light Rain
11:02 AM 37.4 °F 34.9 °F 33.8 °F 87% 30.05 in 4.0 mi Variable 3.5 mph - 0.01 in Rain Rain
11:13 AM 37.4 °F - 33.8 °F 87% 30.06 in 5.0 mi Calm Calm - 0.02 in Rain Light Rain
11:30 AM 37.4 °F 34.9 °F 32.0 °F 81% 30.05 in 4.0 mi NNE 3.5 mph - 0.04 in Snow Light Snow
11:45 AM 35.6 °F - 32.0 °F 87% 30.06 in 1.8 mi Calm Calm - 0.05 in Snow Light Snow
11:53 AM 36.0 °F - 32.0 °F 86% 30.01 in 1.5 mi Calm Calm - 0.06 in Snow Light Snow
12:34 PM 35.6 °F - 33.8 °F 93% 30.05 in 1.5 mi Calm Calm - 0.03 in Snow Light Snow
12:49 PM 35.6 °F - 32.0 °F 87% 30.05 in 2.5 mi Calm Calm - 0.04 in Snow Light Snow
12:53 PM 36.0 °F - 33.1 °F 89% 30.00 in 3.0 mi Calm Calm - 0.04 in Snow Light Snow
12:59 PM 37.4 °F - 33.8 °F 87% 30.04 in 5.0 mi Calm Calm - 0.00 in Snow Light Snow
1:18 PM 37.4 °F - 33.8 °F 87% 30.04 in 7.0 mi Calm Calm - 0.01 in Rain Light Rain
1:36 PM 37.4 °F - 33.8 °F 87% 30.04 in 10.0 mi Calm Calm - 0.01 in Rain Light Rain
1:53 PM 39.0 °F 36.8 °F 33.1 °F 79% 29.98 in 10.0 mi North 3.5 mph - 0.02 in Rain Light Rain
2:07 PM 39.2 °F - 33.8 °F 81% 30.03 in 10.0 mi Calm Calm - 0.00 in Rain Light Rain
2:20 PM 39.2 °F 37.0 °F 33.8 °F 81% 30.03 in 10.0 mi NNE 3.5 mph - 0.00 in Rain Light Rain
2:26 PM 39.2 °F - 33.8 °F 81% 30.03 in 10.0 mi Calm Calm - 0.00 in Rain Light Rain
2:34 PM 39.2 °F 37.0 °F 33.8 °F 81% 30.04 in 10.0 mi North 3.5 mph - 0.00 in Rain Light Rain
2:53 PM 37.9 °F 35.5 °F 34.0 °F 86% 29.99 in 10.0 mi Variable 3.5 mph - 0.00 in Rain Light Rain
3:04 PM 37.4 °F 34.9 °F 33.8 °F 87% 30.04 in 8.0 mi NNE 3.5 mph - 0.00 in Rain Light Rain
3:29 PM 37.4 °F - 33.8 °F 87% 30.04 in 10.0 mi Calm Calm - 0.01 in Rain Light Rain
3:53 PM 39.0 °F 36.8 °F 32.0 °F 76% 29.99 in 10.0 mi SSE 3.5 mph - 0.01 in Rain Light Rain
4:07 PM 39.2 °F - 32.0 °F 75% 30.03 in 10.0 mi Calm Calm - 0.00 in   Overcast
4:53 PM 39.0 °F - 32.0 °F 76% 29.98 in 10.0 mi Calm Calm - 0.00 in   Partly Cloudy
5:53 PM 36.0 °F - 32.0 °F 86% 29.99 in 10.0 mi Calm Calm - N/A   Partly Cloudy
6:42 PM 33.8 °F - 30.2 °F 87% 30.03 in 10.0 mi Calm Calm - N/A   Partly Cloudy
7:21 PM 32.0 °F - 28.4 °F 87% 30.04 in 9.0 mi Calm Calm - N/A   Mostly Cloudy
7:39 PM 33.8 °F - 28.4 °F 81% 30.05 in 9.0 mi Calm Calm - N/A   Overcast
7:53 PM 33.1 °F - 30.0 °F 89% 30.02 in 9.0 mi Calm Calm - N/A   Overcast
8:53 PM 34.0 °F - 30.9 °F 89% 30.03 in 6.0 mi Calm Calm - N/A   Overcast
9:53 PM 34.0 °F 31.0 °F 30.0 °F 85% 30.03 in 8.0 mi South 3.5 mph - N/A   Overcast
10:42 PM 33.8 °F - 28.4 °F 81% 30.06 in 5.0 mi Calm Calm - N/A   Overcast
10:51 PM 33.8 °F - 30.2 °F 87% 30.06 in 6.0 mi Calm Calm - N/A   Overcast
10:53 PM 33.1 °F - 30.0 °F 89% 30.04 in 6.0 mi Calm Calm - N/A   Overcast
11:53 PM 33.1 °F - 30.0 °F 89% 30.05 in 8.0 mi Calm Calm - N/A   Overcast